[Iaude] MPEC E35: 2024 ET [a=1.74,e=0.44,i=4.3,H=25.5]
    mpec at cfa.harvard.edu 
    mpec at cfa.harvard.edu
       
    Mon Mar  4 08:09:06 EST 2024
    
    
  
M.P.E.C. 2024-E35                                 Issued 2024 March 4, 13:07 UT
     The Minor Planet Electronic Circulars contain information on unusual
         minor planets, routine data on comets and natural satellites,
         and occasional editorial announcements.  They are published
    on behalf of Division F of the International Astronomical Union by the
          Minor Planet Center, Smithsonian Astrophysical Observatory,
                          Cambridge, MA 02138, U.S.A.
			  
             Prepared using the Tamkin Foundation Computer Network
                              MPC at CFA.HARVARD.EDU
            URL https://www.minorplanetcenter.net/    ISSN 1523-6714
                                    2024 ET                                     
Observations:
     K24E00T* C2024 03 02.42070909 36 09.313+06 00 34.12         20.81wXEE035F51
     K24E00T  C2024 03 02.43275109 36 16.212+06 01 00.71         20.80wXEE035F51
     K24E00T  C2024 03 02.44478209 36 23.064+06 01 27.40         20.97wXEE035F51
     K24E00T  C2024 03 02.45681909 36 29.998+06 01 53.88         21.13wXEE035F51
     K24E00T KC2024 03 02.98534409 41 49.802+06 20 05.46         20.9 GVEE035J95
     K24E00T KC2024 03 03.00216209 41 59.249+06 20 40.31         20.6 GVEE035J95
     K24E00T |C2024 03 03.05067009 42 32.780+06 24 45.50         20.8 GVEE035807
     K24E00T |C2024 03 03.05515009 42 35.230+06 24 55.10         20.8 GVEE035807
     K24E00T |C2024 03 03.05948709 42 37.630+06 25 04.20         20.9 GVEE035807
     K24E00T KC2024 03 03.09420209 42 57.90 +06 24 09.2          21.0 GVEE035H21
     K24E00T KC2024 03 03.09699809 42 59.44 +06 24 15.3          21.0 GVEE035H21
     K24E00T KC2024 03 03.09979409 43 01.00 +06 24 21.1          20.9 GVEE035H21
     K24E00T KC2024 03 03.10264309 43 02.57 +06 24 26.8          20.5 GVEE035H21
     K24E00T |C2024 03 04.07604009 52 06.470+06 58 25.00         21.2 GVEE035807
     K24E00T |C2024 03 04.08051609 52 08.700+06 58 33.20         21.3 GVEE035807
     K24E00T |C2024 03 04.08484009 52 10.870+06 58 41.40         20.8 GVEE035807
Observer details:
807 Cerro Tololo Observatory, La Serena.  Observers T. Linder, R. Holmes.
    0.61-m f/6.8 Ritchey-Chretien + CCD.
F51 Pan-STARRS 1, Haleakala.  Observers J. Herman, T. Lowe, P. Minguez, A.
    Schultz, I. Smith.  Measurers K. Chambers, T. de Boer, J. Fairlamb, H.
    Gao, M. Huber, C.-C. Lin, E. Magnier, Y. Ramanjooloo, R. Wainscoat, R.
    Weryk.  1.8-m Ritchey-Chretien + CCD.
H21 Astronomical Research Observatory, Westfield.  Observer R. Holmes.
    Measurers T. Linder, R. Holmes, L. Horn.  0.76-m f/3.0 astrograph + CCD.
J95 Great Shefford.  Observer P. Birtwhistle.  0.41-m f/6.3 Schmidt-Cassegrain
    + CCD.
Orbital elements:
2024 ET                                                  Earth MOID = 0.0384 AU
Epoch 2024 Mar. 31.0 TT = JDT 2460400.5                 Veres                   
M  27.88196              (2000.0)            P               Q                  
n   0.42955683     Peri.  310.81527     -0.48459328     -0.87460107             
a   1.7396249      Node   168.14129     +0.82363672     -0.46220419             
e   0.4358066      Incl.    4.34433     +0.29460467     -0.14642489             
P   2.29           H   25.58          G   0.15           U   8                  
Residuals in seconds of arc
240302 F51  0.1-  0.0     240303 807  0.0   0.2-    240303 H21  0.1+  0.2-
240302 F51  0.2+  0.1-    240303 807  0.4-  0.1-    240304 807  0.1+  0.2+
240302 F51  0.3-  0.1+    240303 807  0.2-  0.2-    240304 807  0.1-  0.1-
240302 F51  0.3+  0.1+    240303 H21  0.1+  0.0     240304 807  0.1-  0.1-
240302 J95  0.7-  0.0     240303 H21  0.0   0.2+
240303 J95  0.0   0.4-    240303 H21  0.2+  0.1+
Ephemeris:
2024 ET                  a,e,i = 1.74, 0.44, 4                   q = 0.9815
Date    TT    R. A. (2000) Decl.     Delta      r    Elong.  Phase     V
2024 02 03    03 08 53.2 -14 13 33   0.09347 0.9855    87.3    87.3    23.5
...
2024 02 18    06 04 57.2 -07 28 50   0.05601 1.0155   117.8    59.4    21.5
...
2024 02 26    08 26 50.4 +01 34 59   0.06109 1.0420   147.7    30.5    20.9
...
2024 03 03    09 41 58.7 +06 21 54   0.07833 1.0660   161.7    17.0    21.1
2024 03 04    09 51 22.0 +06 54 58   0.08197 1.0703   163.1    15.6    21.2
2024 03 05    10 00 00.3 +07 24 35   0.08578 1.0747   164.3    14.5    21.2
...
2024 03 11    10 39 17.8 +09 26 13   0.1116  1.1025   167.2    11.5    21.7
...
2024 03 19    11 10 32.8 +10 35 17   0.1523  1.1434   165.2    12.9    22.5
...
2024 04 03    11 41 27.0 +10 34 37   0.2447  1.2285   156.8    18.7    23.9
M. P. C. Staff               (C) Copyright 2024 MPC           M.P.E.C. 2024-E35
    
    
More information about the Iaude
mailing list